Terminal Aerodrome Forecast
Issued by NWS Missoula, MT

Home | Current Version | Previous Version | Text Only | Print | Product List | Glossary On
Versions: 1 2 3 4 5 6 7 8 9 10 11 12 13 14
995
FTUS45 KMSO 011955 AAA
TAFBTM
TAF AMD
KBTM 011955Z 0120/0218 17010G22KT P6SM -SHRA VCTS BKN080CB
     FM012300 26010KT P6SM SCT050
     FM020200 31005KT P6SM SKC=

USA.gov is the U.S. government's official web portal to all federal, state and local government web resources and services.